Theta_e
347 350 355 353 352 352 351 351 350 349 348 347 347 346 346 346 347 347 348 349 349 345 344 346 347 349 354 356 355 354 354 356 356 356 356 356 356 356 356 355 354 352 354
350 350 355 352 352 352 352 351 349 348 348 348 349 350 349 348 349 351 352 350 349 346 345 346 347 347 351 355 355 354 354 353 354 354 355 355 352 353 355 355 352 354 354
349 351 351 351 353 352 351 350 348 348 349 350 350 349 349 350 353 355 357 357 356 354 353 353 352 351 347 351 353 352 351 352 352 351 351 351 350 352 355 354 354 353 354
350 351 350 351 352 351 350 348 347 348 349 348 348 349 350 352 354 353 355 355 352 352 351 351 351 351 349 347 350 350 349 350 351 347 348 350 350 353 354 354 353 353 352
350 351 351 352 352 351 349 348 347 348 347 347 347 349 351 352 352 354 354 352 350 349 347 345 344 345 348 346 347 350 351 350 351 346 345 349 351 353 353 352 353 352 351
346 350 353 351 351 350 348 347 347 348 347 346 347 350 352 352 352 353 352 350 348 345 343 343 345 346 345 342 347 350 350 349 347 347 350 350 351 351 351 351 352 352 352
345 350 351 352 350 349 348 347 347 347 346 345 346 349 352 352 351 351 350 348 346 344 347 350 350 352 351 346 345 350 349 347 345 346 346 350 349 351 349 349 349 351 352
346 348 349 351 350 349 348 346 346 346 346 345 346 348 352 351 350 350 348 347 346 345 348 350 351 352 352 352 350 350 348 345 344 346 345 347 347 346 346 347 348 350 350
347 346 348 347 350 349 347 346 345 345 345 344 344 348 349 350 350 349 348 346 345 345 346 346 349 350 350 351 349 348 347 346 343 345 345 347 346 347 346 346 345 345 349
345 346 347 346 344 344 344 346 344 345 344 344 343 345 347 348 348 347 347 347 344 345 345 345 345 348 349 348 348 347 346 344 343 344 345 346 348 347 347 345 344 344 345
342 345 346 344 344 342 340 342 344 344 343 343 342 342 340 341 340 339 346 346 344 344 344 341 344 345 347 347 346 345 340 341 339 341 343 344 345 346 346 346 345 344 344
338 343 345 345 341 342 340 341 341 340 341 343 343 344 344 343 343 341 341 345 346 344 342 338 338 337 343 344 344 342 340 338 337 338 340 341 340 341 344 345 345 345 345
340 342 344 345 344 340 338 342 339 339 339 341 342 342 343 343 344 345 342 344 346 341 342 337 337 339 342 344 344 342 339 338 338 338 339 338 337 337 339 342 342 343 343
339 340 344 345 343 342 339 341 338 337 338 337 339 341 341 342 345 346 340 344 346 346 344 340 338 342 343 344 343 341 341 340 338 338 338 336 334 334 332 333 339 342 342
338 340 343 346 344 341 341 340 339 337 337 338 339 340 341 344 349 346 342 341 341 344 345 340 338 341 342 342 341 341 340 339 338 336 335 333 332 330 330 330 330 332 339
336 340 343 344 345 342 339 340 340 339 338 338 338 341 344 344 348 346 347 344 340 341 344 340 335 338 340 340 339 340 339 339 337 335 335 335 330 330 329 329 330 330 331
338 341 345 345 345 344 341 340 339 338 337 338 340 345 346 348 347 347 346 345 344 347 346 339 337 336 338 338 338 338 338 338 334 334 333 334 333 331 330 329 329 330 329
341 343 345 343 343 344 342 339 337 337 337 339 341 343 346 347 345 344 345 347 347 344 344 338 335 334 335 336 336 337 336 336 334 332 332 332 333 332 331 331 330 330 330
341 344 346 346 343 343 343 341 341 340 338 340 342 343 346 346 347 343 344 347 345 342 341 337 335 336 334 333 333 335 335 334 334 331 331 332 332 331 331 331 332 331 331
340 343 346 347 348 346 343 342 340 339 339 340 341 343 346 348 349 349 347 344 343 340 338 337 337 335 334 333 329 330 333 334 334 333 331 331 331 332 331 331 332 332 331
338 341 344 345 348 345 341 340 339 339 341 342 343 345 347 348 349 350 346 343 341 339 341 340 338 337 334 335 331 331 332 334 333 332 332 330 330 331 330 330 330 332 331
336 340 342 344 347 345 344 346 344 344 345 345 347 347 349 349 350 349 348 344 341 340 339 339 339 335 334 334 329 328 324 328 329 331 331 329 330 330 329 330 330 332 332
335 338 341 344 347 348 347 346 348 348 348 346 346 347 348 349 349 350 349 345 342 340 338 339 340 337 332 334 333 329 323 321 325 330 330 330 330 330 330 331 330 330 332
335 338 341 345 346 347 349 347 350 344 342 345 351 348 349 350 350 348 348 345 344 342 341 339 338 337 334 332 332 330 331 330 324 322 328 330 331 330 331 331 330 331 331
337 338 342 344 345 346 347 349 347 348 347 350 349 353 351 351 350 347 346 344 345 342 341 337 336 336 335 333 332 333 333 332 331 326 322 326 329 328 329 330 331 331 332
336 336 339 342 344 346 346 348 350 349 348 346 346 346 349 348 348 347 345 347 347 345 340 339 339 337 336 335 335 334 331 329 330 327 324 325 326 329 330 331 331 332 332
Wind_Speed
11 12 11 11 11 12 11 12 12 13 13 13 13 13 13 12 11 9 8 6 6 7 7 7 8 8 8 9 10 9 10 10 10 10 10 10 9 8 8 8 6 10 9
15 13 12 12 11 12 12 12 13 13 13 13 13 13 13 12 10 8 7 8 9 10 9 8 8 8 7 8 8 9 8 8 8 8 8 9 8 8 9 7 4 10 8
14 14 13 12 12 12 12 13 13 13 13 12 13 13 13 11 9 10 13 12 14 12 11 10 8 7 6 6 6 6 6 6 7 8 5 5 7 7 9 7 7 7 7
14 12 12 12 12 12 12 12 13 13 12 12 12 12 12 11 12 12 12 13 14 14 14 13 10 8 6 5 4 4 3 4 7 3 5 5 6 8 7 7 7 6 6
13 12 12 13 13 12 12 12 12 12 12 11 11 11 12 11 12 12 13 13 13 13 13 11 9 7 5 4 3 5 7 4 6 1 5 5 4 8 6 6 8 8 5
14 12 14 13 12 12 12 12 12 11 11 10 10 11 12 12 12 12 12 12 12 12 11 9 7 5 3 2 3 6 8 8 4 6 5 6 5 5 4 4 5 7 6
13 11 12 12 12 12 12 11 11 11 10 10 10 11 12 12 12 12 11 11 11 11 12 10 9 9 7 3 5 7 7 6 6 6 4 5 6 7 6 4 3 7 7
12 10 11 11 11 11 11 11 10 10 9 9 10 11 11 11 11 11 10 10 11 12 12 13 12 12 12 13 11 8 8 5 5 7 5 4 7 5 5 4 3 6 9
11 10 9 10 10 11 10 9 9 8 8 8 8 9 10 10 11 10 9 9 9 10 10 9 10 12 10 12 12 9 10 8 7 5 6 4 8 6 5 4 4 3 7
9 9 9 8 9 9 10 9 8 7 7 6 6 8 9 9 8 9 6 7 7 8 8 6 6 7 9 10 10 11 10 6 8 7 6 7 9 9 7 6 5 5 6
9 9 9 9 9 8 8 9 8 8 7 6 6 6 5 4 4 5 7 6 6 7 6 6 6 4 7 8 9 9 2 4 6 4 4 8 9 9 9 9 8 8 9
13 11 10 10 10 9 7 8 8 8 7 5 4 3 2 2 2 3 2 3 5 6 6 6 7 2 2 3 5 5 3 5 5 5 6 7 7 7 8 8 9 11 12
13 11 12 11 9 9 7 6 5 4 5 5 5 4 3 2 1 0 1 1 3 4 2 2 3 1 4 2 2 3 4 4 3 3 7 5 5 5 7 6 7 9 10
14 13 13 13 11 10 6 6 6 5 5 5 5 5 3 3 1 2 2 2 1 1 2 3 3 3 4 2 2 3 2 2 2 2 4 4 3 4 3 1 5 7 8
14 14 14 14 12 10 9 6 6 6 6 6 5 5 4 2 2 1 3 2 2 2 1 2 2 3 4 4 4 2 2 0 2 2 2 3 3 2 2 2 1 3 7
14 14 14 14 12 11 10 9 7 6 6 6 5 6 6 4 3 2 3 3 2 3 3 3 3 3 3 4 4 4 3 2 2 2 2 1 0 0 1 1 2 3 4
13 13 14 13 13 13 13 10 8 7 7 6 6 7 7 6 4 3 2 3 1 1 4 4 4 3 4 4 5 5 4 4 3 3 3 2 4 5 3 2 2 3 2
13 15 14 13 15 14 12 9 7 6 6 6 5 5 7 6 6 5 4 3 1 3 4 3 3 3 3 4 4 4 4 5 5 5 4 4 3 3 6 7 7 7 7
16 15 16 16 16 16 11 8 8 8 7 7 6 6 7 8 7 4 4 3 3 3 3 4 3 2 3 4 6 6 5 5 6 5 6 6 6 6 4 8 10 9 10
16 16 15 13 14 12 8 7 6 6 7 7 7 7 8 6 8 7 4 3 3 3 3 4 4 4 3 4 5 5 6 6 6 6 7 7 7 7 7 6 7 8 12
14 15 16 15 15 10 9 8 8 8 7 7 7 9 9 8 9 8 5 5 5 3 3 4 3 5 4 4 4 6 7 8 8 8 7 8 9 9 9 8 7 6 8
17 17 15 16 14 12 10 8 7 6 6 5 5 7 8 8 9 8 7 6 6 4 4 5 6 3 3 4 4 3 6 4 5 8 8 8 11 8 10 11 11 11 9
16 16 16 16 14 13 13 8 5 4 2 4 5 5 9 9 9 8 8 7 7 6 4 6 6 6 4 3 5 4 4 4 5 4 7 8 10 9 10 12 13 13 13
18 14 15 14 15 14 14 12 11 9 9 7 6 7 7 9 8 9 9 9 8 5 6 6 5 4 4 5 3 6 8 7 6 7 4 6 8 10 12 11 12 14 15
14 15 14 13 14 13 14 13 11 10 6 3 5 6 5 6 7 7 8 7 8 6 5 5 5 5 4 3 3 2 5 6 8 8 11 7 5 8 9 10 11 12 15
14 13 13 15 15 14 14 14 13 12 8 6 6 5 5 4 5 7 6 8 6 4 5 6 4 3 4 6 5 6 7 6 6 7 8 10 10 8 7 9 10 10 11
Wind_Direction
152 135 140 137 127 121 116 108 101 96 93 92 89 86 84 83 82 84 88 84 87 91 90 85 83 85 85 101 99 88 84 82 81 82 82 77 72 82 86 91 141 104 103
143 137 146 139 131 124 116 106 100 96 95 92 92 89 85 85 89 92 97 92 89 90 89 89 87 94 102 93 99 95 86 84 91 89 88 96 80 74 99 93 65 94 105
145 145 147 146 135 124 113 106 100 98 97 93 89 87 87 89 87 81 75 80 75 78 75 80 84 84 102 100 95 94 93 86 83 80 78 75 84 79 76 98 100 105 109
145 145 143 142 131 123 115 109 107 107 103 97 93 91 91 89 79 78 79 78 73 71 70 67 67 74 97 106 105 82 59 120 97 82 95 74 81 86 96 113 119 119 111
144 142 138 139 138 129 121 113 108 104 99 96 91 90 92 92 87 82 79 78 78 74 71 66 62 64 78 100 89 68 57 97 101 98 67 92 76 81 85 102 132 131 159
146 149 133 145 139 131 122 118 114 110 102 94 88 87 89 88 87 81 81 79 74 67 62 57 50 42 47 77 84 82 84 80 146 88 63 82 63 87 109 105 119 119 127
146 149 146 145 139 130 124 122 123 120 116 108 97 92 91 89 88 86 85 81 73 62 58 53 59 56 68 93 146 108 90 74 56 71 86 80 69 51 64 81 128 135 135
146 149 144 144 141 134 130 131 133 128 121 109 99 97 96 98 96 92 88 79 71 65 61 63 63 63 61 69 92 98 85 63 86 42 43 45 47 47 55 52 124 150 143
149 150 150 151 147 140 139 140 138 134 124 112 99 97 99 94 87 85 84 75 71 68 62 58 65 77 75 80 87 86 77 60 61 60 43 35 60 54 52 60 78 133 158
153 161 161 163 158 160 150 147 149 149 137 121 114 98 89 92 86 89 111 85 79 65 61 58 84 90 98 95 93 84 94 91 60 53 60 55 57 61 62 75 83 92 116
169 180 173 174 171 164 157 153 166 162 155 162 149 115 124 94 82 109 82 102 90 71 60 76 70 115 104 101 113 101 129 74 68 56 54 44 59 57 67 77 79 98 106
179 185 184 184 182 172 174 170 170 173 173 173 165 153 144 103 68 4 40 87 90 93 69 47 38 56 201 116 112 138 87 87 71 60 66 52 50 47 64 83 93 104 110
183 186 193 188 191 188 182 180 186 183 175 185 192 194 177 209 167 289 256 218 128 115 154 75 46 101 154 156 106 64 75 70 66 67 81 74 61 58 51 75 106 115 118
191 192 188 193 193 197 187 193 191 192 190 194 196 203 216 225 207 240 239 265 263 108 77 66 54 89 151 158 114 108 112 48 39 45 85 96 77 76 54 78 103 117 128
193 194 197 194 194 193 196 196 199 204 200 196 191 201 223 232 274 265 217 251 234 225 181 123 124 145 165 183 179 186 188 123 19 356 1 62 29 63 74 323 190 128 136
194 198 199 200 199 194 198 201 202 208 207 205 201 210 213 226 248 215 226 215 236 233 184 175 174 174 187 208 204 211 221 234 237 310 348 83 11 28 173 211 262 214 223
197 194 201 199 201 201 201 202 207 212 209 211 210 214 221 220 224 245 228 250 190 318 189 169 170 182 209 218 231 228 220 221 239 238 258 271 159 184 198 191 214 236 211
206 199 198 199 200 205 204 198 207 212 219 228 220 223 227 225 209 199 229 241 183 196 183 179 174 192 227 238 253 256 252 241 235 225 234 245 228 231 190 205 199 200 211
206 201 200 200 203 205 201 202 210 212 218 225 223 228 234 232 207 187 219 226 185 168 171 176 184 243 222 238 245 246 259 264 251 238 235 231 226 231 220 189 211 208 207
209 207 204 201 208 199 194 201 220 224 230 229 230 226 226 216 200 201 210 210 211 197 187 190 199 199 240 243 255 256 251 249 248 247 243 243 245 241 236 235 211 210 213
212 210 205 200 203 190 191 195 220 224 227 232 229 226 217 208 198 192 198 186 190 196 215 219 218 217 219 221 251 246 256 246 244 243 238 241 237 230 233 229 228 235 203
205 208 202 209 198 197 198 195 209 201 221 232 226 216 220 200 203 203 200 191 180 185 207 201 214 214 234 196 257 281 288 255 235 236 235 238 242 239 236 234 233 229 234
212 203 201 205 193 196 199 189 176 174 174 207 216 217 215 212 204 213 194 193 177 192 206 220 213 204 260 222 224 278 278 278 307 200 226 234 236 232 239 234 231 229 230
215 204 201 195 191 195 190 194 196 204 210 214 215 216 217 216 207 201 210 191 186 201 196 206 210 215 199 244 216 225 251 281 280 289 209 241 238 238 234 237 233 232 229
210 200 194 182 188 190 193 194 195 214 222 206 209 236 207 217 212 205 215 213 191 194 216 203 176 203 216 256 217 251 246 258 249 263 287 274 236 245 238 233 242 235 230
213 200 192 185 191 189 197 196 200 213 216 212 211 221 220 206 207 198 211 228 227 180 213 223 174 188 237 230 238 243 240 253 266 245 265 276 280 274 248 249 240 243 245